Weather History for KGPH - July, 2013

Change the Weather History Date:

Tuesday, July 23, 2013

  Actual Average (KMCI) Record (KMCI)
Temperature  
Mean Temperature 76 °F 79 °F  
Max Temperature 84 °F 89 °F 106 °F (1934)
Min Temperature 68 °F 69 °F 57 °F (2003)
Degree Days  
Heating Degree Days 0 0  
Month to date heating degree days 0  
Since 1 June heating degree days 9  
Since 1 July heating degree days 0  
Cooling Degree Days 11 14  
Month to date cooling degree days 307  
Year to date cooling degree days 689  
Since 1 June cooling degree days 573  
Growing Degree Days 26 (Base 50)    
Moisture  
Dew Point 67 °F    
Average Humidity 75    
Maximum Humidity 100    
Minimum Humidity 51    
Precipitation  
Precipitation 0.00 in 0.13 in 1.90 in (1973)
Month to date precipitation 3.47  
Year to date precipitation 22.53  
Snow  
Snow 0.00 in 0.00 in 0.00 in ()
Month to date snowfall 0.0  
Since 1 June snowfall 0.0  
Since 1 July snowfall 0.0  
Snow Depth -    
Sea Level Pressure  
Sea Level Pressure 29.88 in    
Wind  
Wind Speed 3 mph (NNE)    
Max Wind Speed 12 mph    
Max Gust Speed 16 mph    
Visibility 10 miles    
Events Thunderstorm    
T = Trace of Precipitation, MM = Missing Value Source: NWS Daily Summary

Daily Weather History Graph

Daily Weather History Graph

Search for Another Location

Airport or City:

Trip Planner

Search our weather history database for the weather conditions in past years. The results will help you decide how hot, cold, wet, or windy it might be!

Date:

Astronomy

Jul. 23, 2013 Rise Set
Actual Time 6:09 AM CDT 8:37 PM CDT
Civil Twilight 5:38 AM CDT 9:08 PM CDT
Nautical Twilight 5:00 AM CDT 9:45 PM CDT
Astronomical Twilight 4:18 AM CDT 10:28 PM CDT
Moon 9:07 PM CDT (7/23) 7:18 AM CDT (7/23)
Length of Visible Light 15h 29m
Length of Day
14h 27m
Full, 99% of the Moon is Illuminated
Jul 23
Full
Jul 29
Last Quarter
Aug 6
New
Aug 14
First Quarter
Aug 20
Full

Hourly Weather History & Observations

Time (CDT) Temp. Heat Index Dew Point Humidity Pressure Visibility Wind Dir Wind Speed Gust Speed Precip Events Conditions
12:15 AM 73.4 °F - 71.6 °F 94% 29.83 in 10.0 mi Calm Calm - N/A   Clear
12:35 AM 73.4 °F - 69.8 °F 88% 29.85 in 10.0 mi Calm Calm - N/A   Clear
12:55 AM 73.4 °F - 71.6 °F 94% 29.87 in 10.0 mi Calm Calm - N/A   Clear
1:15 AM 71.6 °F - 71.6 °F 100% 29.88 in 10.0 mi Calm Calm - N/A   Clear
1:35 AM 71.6 °F - 69.8 °F 94% 29.88 in 10.0 mi Calm Calm - N/A   Clear
1:55 AM 71.6 °F - 71.6 °F 100% 29.87 in 10.0 mi North 4.6 mph - N/A   Clear
2:15 AM 73.4 °F - 69.8 °F 88% 29.85 in 10.0 mi Calm Calm - N/A   Scattered Clouds
2:35 AM 71.6 °F - 69.8 °F 94% 29.85 in 10.0 mi Calm Calm - N/A   Clear
2:55 AM 71.6 °F - 69.8 °F 94% 29.83 in 10.0 mi Calm Calm - N/A   Clear
3:15 AM 71.6 °F - 69.8 °F 94% 29.83 in 10.0 mi Calm Calm - N/A   Clear
3:35 AM 71.6 °F - 69.8 °F 94% 29.82 in 10.0 mi Calm Calm - N/A   Clear
3:55 AM 69.8 °F - 69.8 °F 100% 29.82 in 10.0 mi Calm Calm - N/A   Clear
4:15 AM 69.8 °F - 69.8 °F 100% 29.81 in 10.0 mi Calm Calm - N/A   Clear
4:35 AM 69.8 °F - 69.8 °F 100% 29.80 in 10.0 mi South 4.6 mph - N/A   Clear
4:55 AM 71.6 °F - 69.8 °F 94% 29.80 in 10.0 mi Calm Calm - N/A   Clear
5:15 AM 69.8 °F - 69.8 °F 100% 29.81 in 10.0 mi NNW 3.5 mph - N/A   Clear
5:35 AM 69.8 °F - 69.8 °F 100% 29.80 in 10.0 mi Calm Calm - N/A   Clear
5:55 AM 69.8 °F - 69.8 °F 100% 29.81 in 10.0 mi Calm Calm - N/A   Clear
6:15 AM 68.0 °F - 68.0 °F 100% 29.80 in 10.0 mi Calm Calm - N/A   Clear
6:35 AM 68.0 °F - 68.0 °F 100% 29.82 in 10.0 mi NNE 5.8 mph - N/A   Clear
6:55 AM 71.6 °F - 69.8 °F 94% 29.85 in 10.0 mi North 4.6 mph - N/A   Clear
7:15 AM 71.6 °F - 71.6 °F 100% 29.85 in 10.0 mi Calm Calm - N/A   Clear
7:35 AM 73.4 °F - 71.6 °F 94% 29.85 in 10.0 mi Calm Calm - N/A   Clear
7:55 AM 75.2 °F - 71.6 °F 89% 29.86 in 10.0 mi NNE 5.8 mph - N/A   Clear
8:15 AM 75.2 °F - 71.6 °F 89% 29.87 in 10.0 mi North 6.9 mph - N/A   Clear
8:35 AM 75.2 °F - 69.8 °F 83% 29.87 in 10.0 mi NE 5.8 mph - N/A   Clear
8:55 AM 77.0 °F - 68.0 °F 74% 29.90 in 10.0 mi North 8.1 mph - N/A   Clear
9:15 AM 77.0 °F - 66.2 °F 69% 29.91 in 10.0 mi NNE 8.1 mph - N/A   Mostly Cloudy
9:35 AM 77.0 °F - 66.2 °F 69% 29.90 in 10.0 mi North 6.9 mph - N/A   Mostly Cloudy
9:55 AM 77.0 °F - 64.4 °F 65% 29.92 in 10.0 mi North 11.5 mph - N/A   Scattered Clouds
10:15 AM 77.0 °F - 64.4 °F 65% 29.93 in 10.0 mi North 11.5 mph 16.1 mph N/A   Mostly Cloudy
10:35 AM 77.0 °F - 64.4 °F 65% 29.92 in 10.0 mi NE 9.2 mph - N/A   Mostly Cloudy
10:55 AM 77.0 °F - 64.4 °F 65% 29.91 in 10.0 mi NNE 9.2 mph - N/A   Scattered Clouds
11:15 AM 77.0 °F - 64.4 °F 65% 29.92 in 10.0 mi NE 8.1 mph - N/A   Unknown
11:35 AM 77.0 °F - 64.4 °F 65% 29.91 in 10.0 mi ENE 5.8 mph - N/A   Clear
11:55 AM 77.0 °F - 64.4 °F 65% 29.93 in 10.0 mi NE 3.5 mph - N/A   Clear
12:15 PM 77.0 °F - 64.4 °F 65% 29.92 in 10.0 mi East 3.5 mph - N/A   Clear
12:35 PM 78.8 °F - 64.4 °F 61% 29.93 in 10.0 mi Calm Calm - N/A   Unknown
12:55 PM 78.8 °F - 64.4 °F 61% 29.90 in 10.0 mi East 6.9 mph - N/A   Clear
1:15 PM 78.8 °F - 64.4 °F 61% 29.92 in 10.0 mi SSE 3.5 mph - N/A   Scattered Clouds
1:35 PM 77.0 °F - 68.0 °F 74% 29.91 in 10.0 mi SW 9.2 mph - N/A Thunderstorm Scattered Clouds
1:55 PM 78.8 °F - 68.0 °F 69% 29.90 in 10.0 mi SSE 3.5 mph - N/A Thunderstorm Clear
2:15 PM 78.8 °F - 68.0 °F 69% 29.89 in 10.0 mi NE 5.8 mph - N/A Thunderstorm Clear
2:35 PM 80.6 °F 83.2 °F 68.0 °F 65% 29.90 in 10.0 mi NE 10.4 mph - N/A   Clear
3:15 PM 80.6 °F 83.2 °F 68.0 °F 65% 29.91 in 10.0 mi ENE 4.6 mph - N/A   Clear
3:35 PM 82.4 °F 84.6 °F 66.2 °F 58% 29.90 in 10.0 mi East 4.6 mph - N/A   Clear
3:55 PM 82.4 °F 83.9 °F 64.4 °F 54% 29.90 in 10.0 mi East 6.9 mph - N/A   Clear
4:15 PM 82.4 °F 83.9 °F 64.4 °F 54% 29.90 in 10.0 mi ENE 4.6 mph - N/A   Clear
4:35 PM 82.4 °F 83.9 °F 64.4 °F 54% 29.88 in 10.0 mi NNE 5.8 mph - N/A   Clear
4:55 PM 82.4 °F 83.4 °F 62.6 °F 51% 29.88 in 10.0 mi North 3.5 mph - N/A   Clear
5:15 PM 84.2 °F 85.6 °F 64.4 °F 51% 29.87 in 10.0 mi North 4.6 mph - N/A   Clear
5:35 PM 82.4 °F 83.4 °F 62.6 °F 51% 29.86 in 10.0 mi NNE 9.2 mph - N/A   Clear
5:55 PM 82.4 °F 83.9 °F 64.4 °F 54% 29.86 in 10.0 mi NNE 8.1 mph - N/A   Clear
6:15 PM 82.4 °F 84.6 °F 66.2 °F 58% 29.87 in 10.0 mi North 9.2 mph - N/A   Clear
6:35 PM 82.4 °F 84.6 °F 66.2 °F 58% 29.87 in 10.0 mi North 8.1 mph - N/A   Clear
6:55 PM 82.4 °F 83.9 °F 64.4 °F 54% 29.87 in 10.0 mi NNE 9.2 mph - N/A   Clear
7:15 PM 82.4 °F 83.9 °F 64.4 °F 54% 29.88 in 10.0 mi NNE 8.1 mph - N/A   Clear
7:35 PM 80.6 °F 82.3 °F 64.4 °F 58% 29.88 in 10.0 mi NNE 8.1 mph - N/A   Clear
7:55 PM 80.6 °F 82.3 °F 64.4 °F 58% 29.89 in 10.0 mi NNE 8.1 mph - N/A   Clear
8:15 PM 78.8 °F - 64.4 °F 61% 29.90 in 10.0 mi NNE 5.8 mph - N/A   Clear
8:35 PM 77.0 °F - 64.4 °F 65% 29.90 in 10.0 mi NE 6.9 mph - N/A   Clear
8:55 PM 77.0 °F - 62.6 °F 61% 29.91 in 10.0 mi NNE 3.5 mph - N/A   Clear
9:15 PM 75.2 °F - 62.6 °F 65% 29.92 in 10.0 mi NNE 3.5 mph - N/A   Unknown
9:35 PM 73.4 °F - 62.6 °F 69% 29.93 in 10.0 mi NNE 6.9 mph - N/A   Unknown
9:55 PM 73.4 °F - 62.6 °F 69% 29.92 in 10.0 mi NNE 6.9 mph - N/A   Clear
10:15 PM 71.6 °F - 62.6 °F 73% 29.93 in 10.0 mi NNE 8.1 mph - N/A   Clear
10:35 PM 71.6 °F - 60.8 °F 69% 29.95 in 10.0 mi NNE 3.5 mph - N/A   Clear
10:55 PM 71.6 °F - 60.8 °F 69% 29.96 in 10.0 mi NNE 5.8 mph - N/A   Clear
11:15 PM 69.8 °F - 60.8 °F 73% 29.96 in 10.0 mi NNE 4.6 mph - N/A   Clear
11:35 PM 69.8 °F - 60.8 °F 73% 29.95 in 10.0 mi NNE 5.8 mph - N/A   Clear
11:55 PM 69.8 °F - 60.8 °F 73% 29.94 in 10.0 mi NNE 9.2 mph - N/A   Clear